This is the latest recevied weather packets stored in our database for station/object K9RJT. If no packets are shown the sender has not sent any weather packets the latest 10 day(s).
| Time | Temp. | Humidity | Pressure | Rain* | Wind** | Luminosity | Snow |
|---|---|---|---|---|---|---|---|
| 1777880739 | 10.56° C | 62% | 1007.7 hPa | 0 mm | - | 0 W/m² | - |
| 1777880437 | 11.11° C | 61% | 1008 hPa | 0 mm | - | 0 W/m² | - |
| 1777880136 | 11.11° C | 60% | 1008 hPa | 0 mm | - | 0 W/m² | - |
| 1777879833 | 11.11° C | 59% | 1007.7 hPa | 0 mm | - | 0 W/m² | - |
| 1777879531 | 11.67° C | 55% | 1007.9 hPa | 0 mm | - | 0 W/m² | - |
| 1777879227 | 11.67° C | 57% | 1007.8 hPa | 0 mm | - | 0 W/m² | - |
| 1777878924 | 11.67° C | 59% | 1007.9 hPa | 0 mm | - | 0 W/m² | - |
| 1777878621 | 11.67° C | 58% | 1007.8 hPa | 0 mm | - | 0 W/m² | - |
| 1777878319 | 11.67° C | 56% | 1007.8 hPa | 0 mm | - | 0 W/m² | - |
| 1777878015 | 12.22° C | 56% | 1007.8 hPa | 0 mm | - | 0 W/m² | - |
| 1777877711 | 12.22° C | 58% | 1007.7 hPa | 0 mm | - | 0 W/m² | - |
| 1777877408 | 12.22° C | 58% | 1007.8 hPa | 0 mm | - | 0 W/m² | - |
| 1777877105 | 12.22° C | 59% | 1007.8 hPa | 0 mm | - | 0 W/m² | - |
| 1777876803 | 12.78° C | 58% | 1007.6 hPa | 0 mm | - | 0 W/m² | - |
| 1777876500 | 12.78° C | 55% | 1007.6 hPa | 0 mm | - | 0 W/m² | - |
| 1777876196 | 12.22° C | 52% | 1007.7 hPa | 0 mm | - | 0 W/m² | - |
| 1777875893 | 12.22° C | 53% | 1007.7 hPa | 0 mm | - | 0 W/m² | - |
| 1777875589 | 12.22° C | 53% | 1007.6 hPa | 0 mm | - | 0 W/m² | - |
| 1777875285 | 12.78° C | 52% | 1007.6 hPa | 0 mm | - | 0 W/m² | - |
| 1777874983 | 13.33° C | 51% | 1007.5 hPa | 0 mm | - | 0 W/m² | - |
| 1777874678 | 13.33° C | 51% | 1007.3 hPa | 0 mm | - | 0 W/m² | - |
| 1777874375 | 13.33° C | 52% | 1007.3 hPa | 0 mm | - | 0 W/m² | - |
| 1777874073 | 13.33° C | 52% | 1007.4 hPa | 0 mm | - | 0 W/m² | - |
| 1777873771 | 13.89° C | 51% | 1007.2 hPa | 0 mm | - | 0 W/m² | - |
| 1777873467 | 13.89° C | 50% | 1007.4 hPa | 0 mm | - | 0 W/m² | - |
* Rain latest hour (hover to see other rain measurements)
** Current wind speed in m/s (hover to see current wind gust speed)